Location: Unspecified
(48.2082°N, 0.0000°E)
Time: 13:18:45
(UTC+00:00)

A-11 Canister half - Pass Details

Date: 23 June 2019
Orbit: 1514 x 1686 km, 47.2° (Epoch: 17 August)

Event Time Altitude Azimuth Distance (km) Brightness Sun altitude
Rises 11:03:37 0° 238° (WSW) 4,902 11.7 62.6°
Reaches altitude 10° 11:06:50 10° 236° (SW) 3,899 11.3 62.9°
Maximum altitude 11:16:39 67° 157° (SSE) 1,727 12.9 63.6°
Drops below altitude 10° 11:26:09 10° 78° (ENE) 3,774 11.2 64.2°
Sets 11:29:12 0° 76° (ENE) 4,737 11.6 64.4°
